This is the latest recevied weather packets stored in our database for station/object F4GSP-4. If no packets are shown the sender has not sent any weather packets the latest 10 day(s).
| Time | Temp. | Humidity | Pressure | Rain* | Wind** | Luminosity | Snow |
|---|---|---|---|---|---|---|---|
| 1787956153 | 11.67° C | 83% | 1031.1 hPa | - | - | - | - |
| 1787955253 | 11.67° C | 83% | 1031 hPa | - | - | - | - |
| 1787953452 | 12.22° C | 83% | 1030.9 hPa | - | - | - | - |
| 1787951652 | 12.78° C | 83% | 1030.9 hPa | - | - | - | - |
| 1787950752 | 12.78° C | 83% | 1030.9 hPa | - | - | - | - |
| 1787949852 | 12.78° C | 83% | 1030.8 hPa | - | - | - | - |
| 1787948951 | 13.33° C | 83% | 1030.9 hPa | - | - | - | - |
| 1787948051 | 13.33° C | 82% | 1030.8 hPa | - | - | - | - |
| 1787947151 | 13.33° C | 82% | 1030.8 hPa | - | - | - | - |
| 1787946251 | 13.89° C | 82% | 1030.7 hPa | - | - | - | - |
| 1787945351 | 13.89° C | 82% | 1030.3 hPa | - | - | - | - |
| 1787944451 | 14.44° C | 81% | 1030.1 hPa | - | - | - | - |
| 1787942650 | 15.56° C | 80% | 1029.7 hPa | - | - | - | - |
| 1787941750 | 16.67° C | 79% | 1029.6 hPa | - | - | - | - |
| 1787939950 | 20.56° C | 78% | 1029.3 hPa | - | - | - | - |
| 1787939050 | 22.22° C | 78% | 1029.2 hPa | - | - | - | - |
| 1787938149 | 21.67° C | 78% | 1029.1 hPa | - | - | - | - |
| 1787937249 | 23.33° C | 77% | 1029.2 hPa | - | - | - | - |
| 1787936349 | 26.11° C | 77% | 1029.3 hPa | - | - | - | - |
| 1787935449 | 26.67° C | 77% | 1029.3 hPa | - | - | - | - |
| 1787934549 | 30° C | 77% | 1029.4 hPa | - | - | - | - |
| 1787933649 | 30° C | 81% | 1029.3 hPa | - | - | - | - |
| 1787932748 | 27.78° C | 82% | 1029.4 hPa | - | - | - | - |
| 1787931848 | 25° C | 82% | 1029.7 hPa | - | - | - | - |
* Rain since midnight (hover to see other rain measurements)
** Current wind speed in m/s (hover to see current wind gust speed)